Volver al catálogo

STARLINK-4618

ActivoComunicacionesVLEO
NORAD 53735·PAYLOAD·🇺🇸 United States

Lanzado Sep 5, 2022 desde Cape Canaveral Space Force Station

Loading…

Próximos Pases (próximas 24 horas)

TLE

ActualizadoSource: CelesTrak SupGP

Época: Sep 15, 2026, 02:53 UTC

1 53735C 22107AM  26258.12062500  .00033910  00000+0  10021-2 0  2583
2 53735  53.1577 118.5811 0001250  80.4773  80.1298 15.34366548    19

Sigue STARLINK-4618 en tiempo real con AllMySat

Download on the App Store